Regional Weather Roundup
Issued by NWS

Home | Current Version | Previous Version | Graphics & Text | Print | Product List | Glossary On
Versions: 1 2 3 4 5 6 7 8 9 10 11 12 13 14 15 16 17 18 19 20 21 22 23 24 25 26 27 28 29 30 31 32 33 34 35 36 37 38 39 40 41 42 43 44 45 46 47 48 49 50
000
ASUS43 KLMK 262102
RWRKY
KENTUCKY REGIONAL WEATHER ROUNDUP
NATIONAL WEATHER SERVICE LOUISVILLE KY
500 PM EDT THU MAY 26 2016

NOTE "FAIR" INDICATES FEW OR NO CLOUDS BELOW 12,000 FEET
WITH NO SIGNIFICANT WEATHER AND/OR OBSTRUCTIONS TO VISIBILITY.

KYZ001>023-026-027-061>063-070>075-262200-
WESTERN AND SOUTH CENTRAL KENTUCKY

CITY           SKY/WX    TMP DP  RH WIND       PRES   REMARKS
PADUCAH        TSTM      67  64  90 SW7       30.06R
HENDERSON      CLOUDY    72  64  78 S13       30.00R
OWENSBORO      CLOUDY    73  67  81 S20       30.02F
HOPKINSVILLE   NOT AVBL
BOWLING GREEN  TSTM      67  65  93 E6        30.08S
GLASGOW        NOT AVBL
$$

KYZ024-025-028>034-038-045-046-053-262200-
NORTH CENTRAL KENTUCKY

CITY           SKY/WX    TMP DP  RH WIND       PRES   REMARKS
LOUISVILLE/SDF LGT RAIN  68  65  90 S18       29.98F
LOUISVILLE/LOU LGT RAIN  67  64  90 S8        29.99F
FORT KNOX      NOT AVBL
$$

KYZ035>037-039>044-047>052-055>060-089>105-262200-
NORTHEAST KENTUCKY

CITY           SKY/WX    TMP DP  RH WIND       PRES   REMARKS
LEXINGTON      TSTM      67  63  87 CALM      30.09S FOG
COVINGTON      CLOUDY    69  66  90 SE5       30.01F
FRANKFORT      CLOUDY    69  65  86 S9        30.04F
$$

KYZ054-064>069-076>088-106>120-262200-
SOUTHEAST KENTUCKY

CITY           SKY/WX    TMP DP  RH WIND       PRES   REMARKS
JACKSON        PTSUNNY   76  63  64 VRB3      30.11F
LONDON         PTSUNNY   79  65  62 S6        30.10F
SOMERSET       NOT AVBL
MIDDLESBORO    NOT AVBL
MONTICELLO     TSTM      71  66  84 S15G24    30.13R
$$




USA.gov is the U.S. government's official web portal to all federal, state and local government web resources and services.